Location: Austin
(30.3000°N, 97.7500°W)
Time: 07:34:12
(UTC-05:00)

Cosmos 1655 Rocket - Pass Details

Date: 16 June 2025
Orbit: 971 x 1005 km, 83.0° (Epoch: 07 July)

Event Time Altitude Azimuth Distance (km) Brightness Sun altitude
Exits shadow 04:53:49 18° 188° (S) 2,203 5.4 -17.7°
Maximum altitude 04:58:39 83° 274° (W) 1,004 4.0 -16.9°
Drops below altitude 10° 05:05:02 10° 4° (N) 2,770 7.0 -15.9°
Sets 05:07:34 0° 5° (N) 3,726 7.8 -15.5°
